パンスターズ彗星

C/2012 F3 ( PanSTARRS )

English version
Home page
Updated on October 8, 2017

---------------------------------------------------------------------

・ プロフィール

発見日 2012年3月16日
発見光度 21.0等
発見者 Pan-STARRS 1 telescope (Haleakala)

・ 写真集

・ 軌道要素

Epoch 2015 Apr. 8.0 TT = JDT 2457120.5
T 2015 Apr. 6.67471 TT                                  MPCW
q   3.4569674            (2000.0)            P               Q
z  -0.0005284      Peri.  104.01926     -0.01881159     +0.99845753
 +/-0.0000002      Node   164.61410     -0.97640537     -0.00710451
e   1.0018268      Incl.   11.35474     -0.21512478     -0.05506432
From 1496 observations 2012 Jan. 19-2016 Nov. 5, mean residual 0".6.

・ 星図

・ 光度変化

        m1 = 6.5 + 5 logΔ + 9.0 log r(t + 40)

---------------------------------------------------------------------

軌道要素はM.P.E.C. 2016-V116に掲載されたものです。
星図はステラナビゲータ Ver.8 (アストロアーツ) で作成したものです。
光度グラフはComet for Windowsで作成したものです。

---------------------------------------------------------------------

Copyright(C) Seiichi Yoshida (comet@aerith.net). All rights reserved.